Location: Franzen
(48.6167°N, 15.3833°E)
Time: 10:11:46
(UTC+00:00)

Cosmos 468 Rocket - Pass Details

Date: 22 April 2021
Orbit: 745 x 779 km, 74.0° (Epoch: 16 May)

Event Time Altitude Azimuth Distance (km) Brightness Sun altitude
Rises 20:43:03 0° 334° (NNW) 3,199 8.7 -22.1°
Reaches altitude 10° 20:45:26 10° 331° (NNW) 2,272 7.6 -22.3°
Maximum altitude 20:50:30 61° 252° (WSW) 852 4.2 -22.8°
Enters shadow 20:51:46 46° 199° (SSW) 1,005 4.3 -22.9°
